| time (UTC) | temp F | wind direction | speed MPH | gust MPH | rain 1hr in | rain 24hr in | rain mn in | humidity % | barometer mb |
| 20260510013210 | 66 | 259 | 0.0 | 1.0 | 0.00 | 0.00 | 0.00 | 17 | 1020.6 |
| 20260510012747 | 66 | 259 | 0.0 | 1.0 | 0.00 | 0.00 | 0.00 | 16 | 1020.6 |
| 20260510012244 | 66 | 255 | 0.0 | 1.0 | 0.00 | 0.00 | 0.00 | 16 | 1020.6 |
| 20260510011720 | 67 | 292 | 0.0 | 2.0 | 0.00 | 0.00 | 0.00 | 14 | 1020.6 |
| 20260510011218 | 67 | 260 | 0.0 | 2.0 | 0.00 | 0.00 | 0.00 | 17 | 1020.6 |
| 20260510010719 | 67 | 271 | 0.0 | 3.0 | 0.00 | 0.00 | 0.00 | 16 | 1020.5 |
| 20260510010216 | 67 | 288 | 0.0 | 3.0 | 0.00 | 0.00 | 0.00 | 16 | 1020.6 |
| 20260510005713 | 68 | 295 | 0.0 | 1.0 | 0.00 | 0.00 | 0.00 | 16 | 1020.5 |
| 20260510005210 | 68 | 240 | 0.0 | 2.0 | 0.00 | 0.00 | 0.00 | 18 | 1020.5 |
| 20260510004707 | 68 | 229 | 0.0 | 3.0 | 0.00 | 0.00 | 0.00 | 17 | 1020.5 |
| 20260510004225 | 69 | 252 | 0.0 | 3.0 | 0.00 | 0.00 | 0.00 | 17 | 1020.5 |
| 20260510003744 | 69 | 307 | 1.0 | 3.0 | 0.00 | 0.00 | 0.00 | 17 | 1020.4 |
| 20260510003220 | 70 | 291 | 0.0 | 3.0 | 0.00 | 0.00 | 0.00 | 17 | 1020.5 |
| 20260510002713 | 70 | 261 | 0.0 | 3.0 | 0.00 | 0.00 | 0.00 | 16 | 1020.5 |
| 20260510002210 | 70 | 254 | 0.0 | 3.0 | 0.00 | 0.00 | 0.00 | 17 | 1020.5 |
| 20260510001708 | 70 | 263 | 1.0 | 3.0 | 0.00 | 0.00 | 0.00 | 16 | 1020.4 |
| 20260510001226 | 71 | 219 | 1.0 | 3.0 | 0.00 | 0.00 | 0.00 | 16 | 1020.4 |
| 20260510000724 | 71 | 262 | 0.0 | 3.0 | 0.00 | 0.00 | 0.00 | 15 | 1020.5 |
| 20260510000221 | 71 | 205 | 1.0 | 3.0 | 0.00 | 0.00 | 0.00 | 15 | 1020.5 |
| 20260509235720 | 71 | 262 | 1.0 | 3.0 | 0.00 | 0.00 | 0.00 | 15 | 1020.4 |
| 20260509235236 | 72 | 250 | 0.0 | 4.0 | 0.00 | 0.00 | 0.00 | 15 | 1020.4 |
| 20260509234713 | 72 | 304 | 1.0 | 4.0 | 0.00 | 0.00 | 0.00 | 14 | 1020.4 |
| 20260509234215 | 73 | 264 | 1.0 | 3.0 | 0.00 | 0.00 | 0.00 | 13 | 1020.5 |
| 20260509233712 | 73 | 155 | 0.0 | 4.0 | 0.00 | 0.00 | 0.00 | 14 | 1020.4 |
| 20260509233210 | 73 | 293 | 1.0 | 4.0 | 0.00 | 0.00 | 0.00 | 12 | 1020.4 |
| 20260509232706 | 73 | 236 | 1.0 | 3.0 | 0.00 | 0.00 | 0.00 | 13 | 1020.4 |
| 20260509232225 | 73 | 236 | 0.0 | 4.0 | 0.00 | 0.00 | 0.00 | 13 | 1020.6 |
| 20260509231723 | 73 | 259 | 1.0 | 4.0 | 0.00 | 0.00 | 0.00 | 13 | 1020.6 |
| 20260509231220 | 73 | 263 | 0.0 | 4.0 | 0.00 | 0.00 | 0.00 | 15 | 1020.7 |
| 20260509230718 | 74 | 155 | 0.0 | 4.0 | 0.00 | 0.00 | 0.00 | 15 | 1020.6 |
| 20260509230215 | 73 | 285 | 1.0 | 4.0 | 0.00 | 0.00 | 0.00 | 14 | 1020.6 |
| 20260509225714 | 74 | 248 | 1.0 | 5.0 | 0.00 | 0.00 | 0.00 | 14 | 1020.7 |
| 20260509225212 | 74 | 238 | 1.0 | 5.0 | 0.00 | 0.00 | 0.00 | 16 | 1020.7 |
| 20260509224730 | 74 | 263 | 1.0 | 3.0 | 0.00 | 0.00 | 0.00 | 14 | 1020.7 |
| 20260509224228 | 74 | 264 | 1.0 | 3.0 | 0.00 | 0.00 | 0.00 | 13 | 1020.8 |
| 20260509223726 | 74 | 86 | 1.0 | 2.0 | 0.00 | 0.00 | 0.00 | 12 | 1020.8 |
| 20260509223244 | 74 | 288 | 0.0 | 6.0 | 0.00 | 0.00 | 0.00 | 12 | 1020.9 |
| 20260509222721 | 74 | 309 | 1.0 | 6.0 | 0.00 | 0.00 | 0.00 | 12 | 1021.0 |
| 20260509222239 | 74 | 95 | 1.0 | 5.0 | 0.00 | 0.00 | 0.00 | 12 | 1021.0 |
| 20260509221715 | 74 | 221 | 1.0 | 5.0 | 0.00 | 0.00 | 0.00 | 12 | 1020.9 |
| 20260509221213 | 75 | 331 | 1.0 | 5.0 | 0.00 | 0.00 | 0.00 | 11 | 1021.0 |
| 20260509220715 | 75 | 217 | 1.0 | 5.0 | 0.00 | 0.00 | 0.00 | 10 | 1021.0 |
| 20260509220213 | 75 | 39 | 2.0 | 5.0 | 0.00 | 0.00 | 0.00 | 12 | 1021.0 |
| 20260509215712 | 76 | 49 | 1.0 | 3.0 | 0.00 | 0.00 | 0.00 | 11 | 1021.1 |
| 20260509215209 | 76 | 150 | 1.0 | 2.0 | 0.00 | 0.00 | 0.00 | 11 | 1021.1 |
| 20260509214708 | 77 | 45 | 1.0 | 4.0 | 0.00 | 0.00 | 0.00 | 9 | 1021.2 |
| 20260509214227 | 77 | 229 | 1.0 | 4.0 | 0.00 | 0.00 | 0.00 | 11 | 1021.2 |
| 20260509213744 | 77 | 41 | 1.0 | 4.0 | 0.00 | 0.00 | 0.00 | 11 | 1021.2 |
| 20260509213221 | 77 | 146 | 0.0 | 4.0 | 0.00 | 0.00 | 0.00 | 12 | 1021.2 |
| 20260509212736 | 78 | 262 | 1.0 | 4.0 | 0.00 | 0.00 | 0.00 | 11 | 1021.4 |
| 20260509212212 | 77 | 242 | 1.0 | 3.0 | 0.00 | 0.00 | 0.00 | 11 | 1021.4 |
| 20260509211235 | 76 | 218 | 1.0 | 3.0 | 0.00 | 0.00 | 0.00 | 11 | 1021.4 |
| 20260509210712 | 76 | 69 | 1.0 | 2.0 | 0.00 | 0.00 | 0.00 | 13 | 1021.5 |
| 20260509210210 | 76 | 61 | 0.0 | 3.0 | 0.00 | 0.00 | 0.00 | 14 | 1021.5 |
| 20260509205749 | 74 | 231 | 1.0 | 4.0 | 0.00 | 0.00 | 0.00 | 16 | 1021.5 |
| 20260509205225 | 74 | 92 | 2.0 | 4.0 | 0.00 | 0.00 | 0.00 | 16 | 1021.7 |
| 20260509204723 | 74 | 80 | 1.0 | 5.0 | 0.00 | 0.00 | 0.00 | 17 | 1021.7 |
| 20260509204220 | 74 | 49 | 3.0 | 5.0 | 0.00 | 0.00 | 0.00 | 16 | 1021.7 |
| 20260509203718 | 74 | 218 | 1.0 | 5.0 | 0.00 | 0.00 | 0.00 | 16 | 1021.7 |
| 20260509203235 | 75 | 82 | 2.0 | 5.0 | 0.00 | 0.00 | 0.00 | 16 | 1021.7 |
| 20260509202710 | 75 | 77 | 2.0 | 5.0 | 0.00 | 0.00 | 0.00 | 15 | 1021.7 |
| 20260509202248 | 75 | 297 | 1.0 | 5.0 | 0.00 | 0.00 | 0.00 | 15 | 1021.7 |
| 20260509201725 | 76 | 34 | 1.0 | 4.0 | 0.00 | 0.00 | 0.00 | 16 | 1021.8 |
| 20260509201222 | 76 | 49 | 1.0 | 6.0 | 0.00 | 0.00 | 0.00 | 15 | 1021.7 |
| 20260509200718 | 77 | 23 | 3.0 | 6.0 | 0.00 | 0.00 | 0.00 | 14 | 1021.8 |
| 20260509200219 | 79 | 49 | 0.0 | 3.0 | 0.00 | 0.00 | 0.00 | 9 | 1021.7 |
| 20260509195739 | 78 | 124 | 0.0 | 3.0 | 0.00 | 0.00 | 0.00 | 11 | 1021.8 |
| 20260509195214 | 78 | 294 | 1.0 | 4.0 | 0.00 | 0.00 | 0.00 | 10 | 1021.7 |
| 20260509194712 | 78 | 27 | 1.0 | 4.0 | 0.00 | 0.00 | 0.00 | 10 | 1021.8 |
| 20260509194210 | 77 | 174 | 1.0 | 3.0 | 0.00 | 0.00 | 0.00 | 14 | 1021.9 |
| 20260509193728 | 78 | 65 | 2.0 | 3.0 | 0.00 | 0.00 | 0.00 | 10 | 1021.8 |
| 20260509193226 | 79 | 41 | 1.0 | 3.0 | 0.00 | 0.00 | 0.00 | 9 | 1021.9 |
| 20260509192724 | 80 | 304 | 0.0 | 3.0 | 0.00 | 0.00 | 0.00 | 9 | 1021.8 |
| 20260509192222 | 79 | 68 | 1.0 | 3.0 | 0.00 | 0.00 | 0.00 | 10 | 1021.8 |
| 20260509191720 | 79 | 259 | 0.0 | 4.0 | 0.00 | 0.00 | 0.00 | 10 | 1021.8 |
| 20260509191216 | 79 | 111 | 1.0 | 4.0 | 0.00 | 0.00 | 0.00 | 9 | 1021.9 |
| 20260509190714 | 80 | 37 | 0.0 | 5.0 | 0.00 | 0.00 | 0.00 | 9 | 1021.9 |
| 20260509190232 | 79 | 146 | 1.0 | 5.0 | 0.00 | 0.00 | 0.00 | 10 | 1021.9 |
| 20260509185731 | 80 | 198 | 1.0 | 3.0 | 0.00 | 0.00 | 0.00 | 11 | 1021.9 |
| 20260509185247 | 79 | 10 | 1.0 | 3.0 | 0.00 | 0.00 | 0.00 | 11 | 1021.9 |
| 20260509184724 | 79 | 306 | 1.0 | 5.0 | 0.00 | 0.00 | 0.00 | 9 | 1021.9 |
| 20260509184223 | 79 | 233 | 2.0 | 5.0 | 0.00 | 0.00 | 0.00 | 10 | 1021.9 |
| 20260509183721 | 80 | 46 | 0.0 | 3.0 | 0.00 | 0.00 | 0.00 | 9 | 1021.9 |
| 20260509183218 | 79 | 171 | 0.0 | 3.0 | 0.00 | 0.00 | 0.00 | 8 | 1021.9 |
| 20260509182719 | 79 | 305 | 0.0 | 4.0 | 0.00 | 0.00 | 0.00 | 8 | 1021.9 |
| 20260509182217 | 80 | 261 | 0.0 | 4.0 | 0.00 | 0.00 | 0.00 | 9 | 1021.9 |
| 20260509181714 | 79 | 254 | 0.0 | 2.0 | 0.00 | 0.00 | 0.00 | 9 | 1021.9 |
| 20260509181212 | 78 | 252 | 1.0 | 4.0 | 0.00 | 0.00 | 0.00 | 8 | 1021.9 |
| 20260509180750 | 78 | 267 | 0.0 | 4.0 | 0.00 | 0.00 | 0.00 | 8 | 1021.9 |
| 20260509180227 | 79 | 252 | 1.0 | 3.0 | 0.00 | 0.00 | 0.00 | 7 | 1021.9 |
| 20260509175725 | 79 | 90 | 1.0 | 4.0 | 0.00 | 0.00 | 0.00 | 9 | 1021.9 |
| 20260509175223 | 78 | 179 | 1.0 | 2.0 | 0.00 | 0.00 | 0.00 | 8 | 1021.9 |
| 20260509174720 | 78 | 233 | 0.0 | 3.0 | 0.00 | 0.00 | 0.00 | 6 | 1021.9 |
| 20260509174238 | 78 | 134 | 1.0 | 3.0 | 0.00 | 0.00 | 0.00 | 8 | 1021.8 |
| 20260509173714 | 78 | 20 | 1.0 | 2.0 | 0.00 | 0.00 | 0.00 | 8 | 1021.9 |
| 20260509173212 | 76 | 214 | 0.0 | 3.0 | 0.00 | 0.00 | 0.00 | 6 | 1021.9 |
| 20260509172710 | 77 | 257 | 0.0 | 3.0 | 0.00 | 0.00 | 0.00 | 7 | 1021.9 |
| 20260509172228 | 77 | 265 | 0.0 | 2.0 | 0.00 | 0.00 | 0.00 | 7 | 1021.9 |
| 20260509171726 | 77 | 224 | 0.0 | 2.0 | 0.00 | 0.00 | 0.00 | 8 | 1021.9 |
| 20260509171224 | 77 | 250 | 0.0 | 2.0 | 0.00 | 0.00 | 0.00 | 7 | 1021.9 |
| 20260509170721 | 76 | 250 | 1.0 | 2.0 | 0.00 | 0.00 | 0.00 | 8 | 1021.8 |
| 20260509170222 | 76 | 124 | 0.0 | 2.0 | 0.00 | 0.00 | 0.00 | 7 | 1021.8 |
| 20260509165720 | 76 | 155 | 0.0 | 2.0 | 0.00 | 0.00 | 0.00 | 8 | 1021.9 |
| 20260509165217 | 75 | 190 | 0.0 | 2.0 | 0.00 | 0.00 | 0.00 | 10 | 1021.8 |
| 20260509164714 | 75 | 35 | 1.0 | 2.0 | 0.00 | 0.00 | 0.00 | 9 | 1021.8 |
| 20260509164214 | 75 | 251 | 0.0 | 2.0 | 0.00 | 0.00 | 0.00 | 9 | 1021.8 |
| 20260509163712 | 74 | 147 | 0.0 | 3.0 | 0.00 | 0.00 | 0.00 | 12 | 1021.8 |
| 20260509163210 | 74 | 195 | 1.0 | 3.0 | 0.00 | 0.00 | 0.00 | 9 | 1021.7 |
| 20260509162723 | 74 | 269 | 0.0 | 3.0 | 0.00 | 0.00 | 0.00 | 11 | 1021.7 |
| 20260509162221 | 74 | 302 | 0.0 | 2.0 | 0.00 | 0.00 | 0.00 | 12 | 1021.8 |
| 20260509161719 | 73 | 224 | 0.0 | 2.0 | 0.00 | 0.00 | 0.00 | 13 | 1021.8 |
| 20260509161216 | 73 | 11 | 0.0 | 2.0 | 0.00 | 0.00 | 0.00 | 13 | 1021.8 |
| 20260509160714 | 73 | 340 | 0.0 | 1.0 | 0.00 | 0.00 | 0.00 | 13 | 1021.7 |
| 20260509160211 | 73 | 251 | 0.0 | 1.0 | 0.00 | 0.00 | 0.00 | 13 | 1021.7 |
| 20260509155710 | 73 | 7 | 0.0 | 2.0 | 0.00 | 0.00 | 0.00 | 13 | 1021.7 |
| 20260509155247 | 72 | 241 | 0.0 | 2.0 | 0.00 | 0.00 | 0.00 | 14 | 1021.7 |
| 20260509154724 | 72 | 274 | 0.0 | 2.0 | 0.00 | 0.00 | 0.00 | 14 | 1021.7 |
| 20260509154226 | 72 | 32 | 0.0 | 1.0 | 0.00 | 0.00 | 0.00 | 16 | 1021.7 |
| 20260509153724 | 71 | 258 | 0.0 | 1.0 | 0.00 | 0.00 | 0.00 | 15 | 1021.7 |
| 20260509153220 | 71 | 266 | 0.0 | 1.0 | 0.00 | 0.00 | 0.00 | 16 | 1021.7 |
| 20260509152718 | 71 | 266 | 0.0 | 1.0 | 0.00 | 0.00 | 0.00 | 16 | 1021.7 |
| 20260509152215 | 70 | 266 | 0.0 | 1.0 | 0.00 | 0.00 | 0.00 | 16 | 1021.7 |
| 20260509151733 | 70 | 222 | 0.0 | 1.0 | 0.00 | 0.00 | 0.00 | 17 | 1021.7 |
| 20260509151250 | 70 | 249 | 0.0 | 1.0 | 0.00 | 0.00 | 0.00 | 16 | 1021.7 |
| 20260509150747 | 70 | 239 | 0.0 | 1.0 | 0.00 | 0.00 | 0.00 | 16 | 1021.7 |
| 20260509150224 | 70 | 236 | 0.0 | 1.0 | 0.00 | 0.00 | 0.00 | 16 | 1021.7 |
| 20260509145722 | 69 | 236 | 0.0 | 1.0 | 0.00 | 0.00 | 0.00 | 17 | 1021.7 |
| 20260509145220 | 68 | 236 | 0.0 | 1.0 | 0.00 | 0.00 | 0.00 | 18 | 1021.7 |
| 20260509144718 | 67 | 236 | 0.0 | 1.0 | 0.00 | 0.00 | 0.00 | 19 | 1021.7 |
| 20260509143744 | 64 | 236 | 0.0 | 0.0 | 0.00 | 0.00 | 0.00 | 19 | 1021.7 |
| 20260509143241 | 64 | 236 | 0.0 | 0.0 | 0.00 | 0.00 | 0.00 | 18 | 1021.6 |
| 20260509142738 | 63 | 236 | 0.0 | 0.0 | 0.00 | 0.00 | 0.00 | 20 | 1021.6 |
| 20260509142215 | 61 | 236 | 0.0 | 0.0 | 0.00 | 0.00 | 0.00 | 20 | 1021.6 |
| 20260509141733 | 60 | 236 | 0.0 | 0.0 | 0.00 | 0.00 | 0.00 | 22 | 1021.6 |
| 20260509141226 | 59 | 236 | 0.0 | 0.0 | 0.00 | 0.00 | 0.00 | 25 | 1021.6 |
| 20260509140724 | 57 | 236 | 0.0 | 0.0 | 0.00 | 0.00 | 0.00 | 25 | 1021.5 |
| 20260509140222 | 57 | 236 | 0.0 | 0.0 | 0.00 | 0.00 | 0.00 | 24 | 1021.5 |
| 20260509135720 | 56 | 236 | 0.0 | 0.0 | 0.00 | 0.00 | 0.00 | 22 | 1021.5 |
| 20260509135218 | 55 | 236 | 0.0 | 0.0 | 0.00 | 0.00 | 0.00 | 23 | 1021.4 |
| 20260509134719 | 55 | 236 | 0.0 | 0.0 | 0.00 | 0.00 | 0.00 | 24 | 1021.4 |
| 20260509134218 | 54 | 236 | 0.0 | 0.0 | 0.00 | 0.00 | 0.00 | 24 | 1021.3 |
| 20260509133715 | 54 | 236 | 0.0 | 0.0 | 0.00 | 0.00 | 0.00 | 26 | 1021.2 |
| 20260509133213 | 53 | 236 | 0.0 | 1.0 | 0.00 | 0.00 | 0.00 | 25 | 1021.2 |
| 20260509132731 | 53 | 236 | 0.0 | 1.0 | 0.00 | 0.00 | 0.00 | 24 | 1021.2 |
| 20260509132229 | 53 | 236 | 0.0 | 1.0 | 0.00 | 0.00 | 0.00 | 24 | 1021.0 |
| 20260509131727 | 53 | 236 | 0.0 | 1.0 | 0.00 | 0.00 | 0.00 | 23 | 1021.1 |
| 20260509131245 | 53 | 236 | 0.0 | 1.0 | 0.00 | 0.00 | 0.00 | 22 | 1021.1 |
| 20260509130722 | 53 | 236 | 0.0 | 1.0 | 0.00 | 0.00 | 0.00 | 21 | 1021.1 |
| 20260509130219 | 54 | 245 | 0.0 | 1.0 | 0.00 | 0.00 | 0.00 | 20 | 1021.0 |
| 20260509125718 | 53 | 245 | 0.0 | 1.0 | 0.00 | 0.00 | 0.00 | 19 | 1021.0 |
| 20260509125215 | 53 | 245 | 0.0 | 1.0 | 0.00 | 0.00 | 0.00 | 19 | 1021.0 |
| 20260509124713 | 53 | 245 | 0.0 | 1.0 | 0.00 | 0.00 | 0.00 | 20 | 1020.9 |
| 20260509124211 | 52 | 245 | 0.0 | 0.0 | 0.00 | 0.00 | 0.00 | 20 | 1020.9 |
| 20260509123730 | 52 | 245 | 0.0 | 0.0 | 0.00 | 0.00 | 0.00 | 21 | 1020.9 |
| 20260509123248 | 52 | 245 | 0.0 | 0.0 | 0.00 | 0.00 | 0.00 | 21 | 1020.8 |
| 20260509122724 | 52 | 245 | 0.0 | 1.0 | 0.00 | 0.00 | 0.00 | 21 | 1020.9 |
| 20260509122226 | 51 | 245 | 0.0 | 1.0 | 0.00 | 0.00 | 0.00 | 21 | 1020.8 |
| 20260509121724 | 51 | 245 | 0.0 | 1.0 | 0.00 | 0.00 | 0.00 | 21 | 1020.7 |
| 20260509121222 | 50 | 245 | 0.0 | 1.0 | 0.00 | 0.00 | 0.00 | 22 | 1020.8 |
| 20260509120720 | 50 | 245 | 0.0 | 1.0 | 0.00 | 0.00 | 0.00 | 22 | 1020.9 |
| 20260509120216 | 51 | 245 | 0.0 | 1.0 | 0.00 | 0.00 | 0.00 | 22 | 1020.9 |
| 20260509115715 | 51 | 245 | 0.0 | 1.0 | 0.00 | 0.00 | 0.00 | 21 | 1020.9 |
| 20260509115213 | 52 | 245 | 0.0 | 1.0 | 0.00 | 0.00 | 0.00 | 20 | 1020.9 |
| 20260509114731 | 52 | 244 | 0.0 | 0.0 | 0.00 | 0.00 | 0.00 | 20 | 1021.0 |
| 20260509114230 | 52 | 244 | 0.0 | 1.0 | 0.00 | 0.00 | 0.00 | 20 | 1021.0 |
| 20260509113727 | 52 | 244 | 0.0 | 1.0 | 0.00 | 0.00 | 0.00 | 19 | 1021.0 |
| 20260509113224 | 52 | 243 | 0.0 | 1.0 | 0.00 | 0.00 | 0.00 | 18 | 1021.0 |
| 20260509112721 | 51 | 243 | 0.0 | 1.0 | 0.00 | 0.00 | 0.00 | 18 | 1020.9 |
| 20260509112219 | 52 | 243 | 0.0 | 1.0 | 0.00 | 0.00 | 0.00 | 19 | 1021.0 |
| 20260509111716 | 52 | 243 | 0.0 | 1.0 | 0.00 | 0.00 | 0.00 | 19 | 1021.0 |
| 20260509111218 | 52 | 243 | 0.0 | 1.0 | 0.00 | 0.00 | 0.00 | 19 | 1021.0 |
| 20260509110716 | 52 | 243 | 0.0 | 2.0 | 0.00 | 0.00 | 0.00 | 20 | 1021.0 |
| 20260509110214 | 52 | 242 | 0.0 | 2.0 | 0.00 | 0.00 | 0.00 | 20 | 1021.0 |
| 20260509105732 | 51 | 245 | 0.0 | 1.0 | 0.00 | 0.00 | 0.00 | 20 | 1021.0 |
| 20260509105249 | 51 | 245 | 0.0 | 1.0 | 0.00 | 0.00 | 0.00 | 22 | 1021.0 |
| 20260509104726 | 51 | 240 | 0.0 | 1.0 | 0.00 | 0.00 | 0.00 | 21 | 1021.1 |
| 20260509104224 | 51 | 240 | 0.0 | 1.0 | 0.00 | 0.00 | 0.00 | 21 | 1021.0 |
| 20260509103722 | 51 | 252 | 0.0 | 0.0 | 0.00 | 0.00 | 0.00 | 21 | 1021.0 |
| 20260509103220 | 50 | 252 | 0.0 | 0.0 | 0.00 | 0.00 | 0.00 | 21 | 1021.1 |
| 20260509102719 | 50 | 252 | 0.0 | 0.0 | 0.00 | 0.00 | 0.00 | 22 | 1021.0 |
| 20260509102216 | 49 | 252 | 0.0 | 0.0 | 0.00 | 0.00 | 0.00 | 22 | 1021.1 |
| 20260509101714 | 49 | 252 | 0.0 | 0.0 | 0.00 | 0.00 | 0.00 | 21 | 1021.1 |
| 20260509101230 | 49 | 252 | 0.0 | 0.0 | 0.00 | 0.00 | 0.00 | 21 | 1021.1 |
| 20260509100749 | 50 | 252 | 0.0 | 0.0 | 0.00 | 0.00 | 0.00 | 19 | 1021.1 |
| 20260509100225 | 50 | 252 | 0.0 | 0.0 | 0.00 | 0.00 | 0.00 | 18 | 1021.2 |
| 20260509095744 | 50 | 252 | 0.0 | 0.0 | 0.00 | 0.00 | 0.00 | 17 | 1021.2 |
| 20260509095240 | 50 | 252 | 0.0 | 0.0 | 0.00 | 0.00 | 0.00 | 17 | 1021.2 |
| 20260509094716 | 50 | 252 | 0.0 | 0.0 | 0.00 | 0.00 | 0.00 | 17 | 1021.3 |
| 20260509094214 | 50 | 252 | 0.0 | 0.0 | 0.00 | 0.00 | 0.00 | 16 | 1021.2 |
| 20260509093732 | 50 | 252 | 0.0 | 0.0 | 0.00 | 0.00 | 0.00 | 16 | 1021.3 |
| 20260509093230 | 50 | 252 | 0.0 | 0.0 | 0.00 | 0.00 | 0.00 | 17 | 1021.3 |
| 20260509092727 | 51 | 252 | 0.0 | 0.0 | 0.00 | 0.00 | 0.00 | 17 | 1021.4 |
| 20260509092229 | 51 | 252 | 0.0 | 0.0 | 0.00 | 0.00 | 0.00 | 17 | 1021.4 |
| 20260509091727 | 51 | 252 | 0.0 | 0.0 | 0.00 | 0.00 | 0.00 | 17 | 1021.4 |
| 20260509091225 | 51 | 252 | 0.0 | 0.0 | 0.00 | 0.00 | 0.00 | 17 | 1021.4 |
| 20260509090723 | 52 | 252 | 0.0 | 0.0 | 0.00 | 0.00 | 0.00 | 17 | 1021.5 |
| 20260509090221 | 52 | 252 | 0.0 | 0.0 | 0.00 | 0.00 | 0.00 | 16 | 1021.5 |
| 20260509085720 | 52 | 252 | 0.0 | 0.0 | 0.00 | 0.00 | 0.00 | 16 | 1021.5 |
| 20260509085233 | 52 | 252 | 0.0 | 1.0 | 0.00 | 0.00 | 0.00 | 16 | 1021.6 |
| 20260509084730 | 52 | 252 | 0.0 | 1.0 | 0.00 | 0.00 | 0.00 | 16 | 1021.6 |
| 20260509084229 | 53 | 252 | 0.0 | 1.0 | 0.00 | 0.00 | 0.00 | 16 | 1021.6 |
| 20260509083726 | 53 | 252 | 0.0 | 1.0 | 0.00 | 0.00 | 0.00 | 16 | 1021.7 |
| 20260509083224 | 53 | 252 | 0.0 | 1.0 | 0.00 | 0.00 | 0.00 | 16 | 1021.7 |
| 20260509082722 | 53 | 252 | 0.0 | 1.0 | 0.00 | 0.00 | 0.00 | 17 | 1021.7 |
| 20260509082240 | 53 | 252 | 0.0 | 1.0 | 0.00 | 0.00 | 0.00 | 17 | 1021.7 |
| 20260509081717 | 53 | 252 | 0.0 | 1.0 | 0.00 | 0.00 | 0.00 | 18 | 1021.7 |
| 20260509081215 | 53 | 252 | 0.0 | 1.0 | 0.00 | 0.00 | 0.00 | 18 | 1021.8 |
| 20260509080715 | 53 | 252 | 0.0 | 1.0 | 0.00 | 0.00 | 0.00 | 19 | 1021.8 |
| 20260509080249 | 53 | 252 | 0.0 | 1.0 | 0.00 | 0.00 | 0.00 | 19 | 1021.9 |
| 20260509075731 | 53 | 252 | 0.0 | 1.0 | 0.00 | 0.00 | 0.00 | 18 | 1021.9 |
| 20260509075228 | 53 | 252 | 0.0 | 1.0 | 0.00 | 0.00 | 0.00 | 19 | 1021.9 |
| 20260509074726 | 53 | 255 | 0.0 | 1.0 | 0.00 | 0.00 | 0.00 | 19 | 1022.0 |
| 20260509074224 | 53 | 255 | 0.0 | 1.0 | 0.00 | 0.00 | 0.00 | 19 | 1022.1 |
| 20260509073722 | 53 | 255 | 0.0 | 1.0 | 0.00 | 0.00 | 0.00 | 19 | 1022.1 |
| 20260509073220 | 53 | 255 | 0.0 | 1.0 | 0.00 | 0.00 | 0.00 | 18 | 1022.1 |
| 20260509072718 | 53 | 255 | 0.0 | 1.0 | 0.00 | 0.00 | 0.00 | 18 | 1022.1 |
| 20260509072215 | 53 | 255 | 0.0 | 1.0 | 0.00 | 0.00 | 0.00 | 18 | 1022.1 |
| 20260509071733 | 53 | 255 | 0.0 | 1.0 | 0.00 | 0.00 | 0.00 | 19 | 1022.1 |
| 20260509071231 | 53 | 255 | 0.0 | 1.0 | 0.00 | 0.00 | 0.00 | 19 | 1022.1 |
| 20260509070729 | 53 | 255 | 0.0 | 0.0 | 0.00 | 0.00 | 0.00 | 20 | 1022.1 |
| 20260509070226 | 53 | 255 | 0.0 | 1.0 | 0.00 | 0.00 | 0.00 | 20 | 1022.2 |
| 20260509065724 | 53 | 255 | 0.0 | 1.0 | 0.00 | 0.00 | 0.00 | 21 | 1022.2 |
| 20260509065242 | 53 | 255 | 0.0 | 1.0 | 0.00 | 0.00 | 0.00 | 22 | 1022.3 |
| 20260509064719 | 54 | 255 | 0.0 | 1.0 | 0.00 | 0.00 | 0.00 | 21 | 1022.3 |
| 20260509064221 | 54 | 255 | 0.0 | 1.0 | 0.00 | 0.00 | 0.00 | 21 | 1022.4 |
| 20260509063738 | 54 | 255 | 0.0 | 1.0 | 0.00 | 0.00 | 0.00 | 20 | 1022.3 |
| 20260509063215 | 54 | 255 | 0.0 | 1.0 | 0.00 | 0.00 | 0.00 | 21 | 1022.4 |
| 20260509062753 | 54 | 255 | 0.0 | 1.0 | 0.00 | 0.00 | 0.00 | 24 | 1022.4 |
| 20260509062230 | 54 | 255 | 0.0 | 1.0 | 0.00 | 0.00 | 0.00 | 24 | 1022.4 |
| 20260509061727 | 53 | 255 | 0.0 | 1.0 | 0.00 | 0.00 | 0.00 | 26 | 1022.4 |
| 20260509061225 | 53 | 255 | 0.0 | 1.0 | 0.00 | 0.00 | 0.00 | 28 | 1022.4 |
| 20260509060722 | 53 | 255 | 0.0 | 1.0 | 0.00 | 0.00 | 0.00 | 29 | 1022.4 |
| 20260509060220 | 53 | 256 | 0.0 | 0.0 | 0.00 | 0.00 | 0.00 | 29 | 1022.4 |
| 20260509055740 | 54 | 256 | 0.0 | 0.0 | 0.00 | 0.00 | 0.00 | 30 | 1022.4 |
| 20260509055215 | 55 | 256 | 0.0 | 0.0 | 0.00 | 0.00 | 0.00 | 30 | 1022.4 |
| 20260509054733 | 56 | 256 | 0.0 | 0.0 | 0.00 | 0.00 | 0.00 | 30 | 1022.4 |
| 20260509054232 | 56 | 256 | 0.0 | 1.0 | 0.00 | 0.00 | 0.00 | 29 | 1022.4 |
| 20260509053730 | 57 | 255 | 0.0 | 1.0 | 0.00 | 0.00 | 0.00 | 29 | 1022.5 |
| 20260509053227 | 57 | 255 | 0.0 | 1.0 | 0.00 | 0.00 | 0.00 | 29 | 1022.4 |
| 20260509052725 | 58 | 255 | 0.0 | 1.0 | 0.00 | 0.00 | 0.00 | 28 | 1022.5 |
| 20260509052229 | 58 | 255 | 0.0 | 1.0 | 0.00 | 0.00 | 0.00 | 27 | 1022.6 |
| 20260509051727 | 59 | 255 | 0.0 | 2.0 | 0.00 | 0.00 | 0.00 | 26 | 1022.6 |
| 20260509051229 | 59 | 256 | 0.0 | 2.0 | 0.00 | 0.00 | 0.00 | 29 | 1022.5 |
| 20260509050726 | 59 | 255 | 1.0 | 2.0 | 0.00 | 0.00 | 0.00 | 31 | 1022.6 |
| 20260509050224 | 58 | 252 | 0.0 | 2.0 | 0.00 | 0.00 | 0.00 | 32 | 1022.6 |
| 20260509045739 | 58 | 252 | 1.0 | 2.0 | 0.00 | 0.00 | 0.00 | 29 | 1022.4 |
| 20260509045234 | 58 | 253 | 1.0 | 2.0 | 0.00 | 0.00 | 0.00 | 28 | 1022.4 |
| 20260509044731 | 58 | 255 | 1.0 | 1.0 | 0.00 | 0.00 | 0.00 | 25 | 1022.4 |
| 20260509044230 | 58 | 255 | 1.0 | 1.0 | 0.00 | 0.00 | 0.00 | 20 | 1022.4 |
| 20260509043728 | 58 | 256 | 1.0 | 2.0 | 0.00 | 0.00 | 0.00 | 17 | 1022.4 |
| 20260509043226 | 58 | 257 | 1.0 | 2.0 | 0.00 | 0.00 | 0.00 | 16 | 1022.4 |
| 20260509042723 | 57 | 256 | 1.0 | 2.0 | 0.00 | 0.00 | 0.00 | 16 | 1022.4 |
| 20260509042221 | 57 | 254 | 1.0 | 2.0 | 0.00 | 0.00 | 0.00 | 17 | 1022.3 |
| 20260509041718 | 57 | 255 | 0.0 | 2.0 | 0.00 | 0.00 | 0.00 | 16 | 1022.3 |
| 20260509041215 | 57 | 254 | 1.0 | 2.0 | 0.00 | 0.00 | 0.00 | 17 | 1022.2 |
| 20260509040734 | 57 | 253 | 0.0 | 2.0 | 0.00 | 0.00 | 0.00 | 17 | 1022.1 |
| 20260509040252 | 57 | 254 | 1.0 | 2.0 | 0.00 | 0.00 | 0.00 | 17 | 1022.0 |
| 20260509035728 | 57 | 252 | 1.0 | 2.0 | 0.00 | 0.00 | 0.00 | 18 | 1022.0 |
| 20260509035225 | 56 | 253 | 1.0 | 2.0 | 0.00 | 0.00 | 0.00 | 23 | 1022.0 |
| 20260509034727 | 56 | 251 | 1.0 | 1.0 | 0.00 | 0.00 | 0.00 | 24 | 1022.0 |
| 20260509034225 | 56 | 252 | 0.0 | 1.0 | 0.00 | 0.00 | 0.00 | 32 | 1022.0 |
| 20260509033743 | 56 | 252 | 1.0 | 2.0 | 0.00 | 0.00 | 0.00 | 36 | 1021.9 |
| 20260509033220 | 56 | 252 | 1.0 | 2.0 | 0.00 | 0.00 | 0.00 | 42 | 1021.9 |
| 20260509032717 | 56 | 252 | 0.0 | 1.0 | 0.00 | 0.00 | 0.00 | 43 | 1021.9 |
| 20260509032234 | 57 | 252 | 0.0 | 1.0 | 0.00 | 0.00 | 0.00 | 34 | 1021.9 |
| 20260509031752 | 58 | 252 | 0.0 | 1.0 | 0.00 | 0.00 | 0.00 | 27 | 1021.9 |
| 20260509031228 | 58 | 252 | 0.0 | 1.0 | 0.00 | 0.00 | 0.00 | 21 | 1021.9 |
| 20260509030726 | 59 | 252 | 0.0 | 1.0 | 0.00 | 0.00 | 0.00 | 19 | 1021.8 |
| 20260509030224 | 59 | 252 | 0.0 | 1.0 | 0.00 | 0.00 | 0.00 | 18 | 1021.7 |
| 20260509025724 | 59 | 252 | 0.0 | 1.0 | 0.00 | 0.00 | 0.00 | 18 | 1021.7 |
| 20260509025221 | 59 | 252 | 0.0 | 1.0 | 0.00 | 0.00 | 0.00 | 19 | 1021.6 |
| 20260509024718 | 60 | 252 | 0.0 | 1.0 | 0.00 | 0.00 | 0.00 | 19 | 1021.5 |
| 20260509024236 | 60 | 252 | 0.0 | 1.0 | 0.00 | 0.00 | 0.00 | 19 | 1021.5 |
| 20260509023733 | 61 | 252 | 0.0 | 1.0 | 0.00 | 0.00 | 0.00 | 18 | 1021.6 |
| 20260509023250 | 61 | 252 | 0.0 | 1.0 | 0.00 | 0.00 | 0.00 | 18 | 1021.6 |
| 20260509022727 | 61 | 252 | 0.0 | 1.0 | 0.00 | 0.00 | 0.00 | 19 | 1021.6 |
| 20260509022225 | 61 | 237 | 0.0 | 1.0 | 0.00 | 0.00 | 0.00 | 20 | 1021.5 |
| 20260509021744 | 62 | 235 | 0.0 | 1.0 | 0.00 | 0.00 | 0.00 | 21 | 1021.6 |
| 20260509021224 | 62 | 235 | 0.0 | 1.0 | 0.00 | 0.00 | 0.00 | 19 | 1021.5 |
| 20260509020742 | 63 | 235 | 0.0 | 1.0 | 0.00 | 0.00 | 0.00 | 19 | 1021.5 |
| 20260509020218 | 63 | 234 | 0.0 | 1.0 | 0.00 | 0.00 | 0.00 | 20 | 1021.5 |
| 20260509020128 | 63 | 233 | 0.0 | 1.0 | 0.00 | 0.00 | 0.00 | 20 | 1021.5 |
| 20260509015627 | 63 | 232 | 0.0 | 1.0 | 0.00 | 0.00 | 0.00 | 21 | 1021.4 |
| 20260509015125 | 63 | 221 | 0.0 | 1.0 | 0.00 | 0.00 | 0.00 | 22 | 1021.4 |
| 20260509014622 | 64 | 248 | 0.0 | 1.0 | 0.00 | 0.00 | 0.00 | 22 | 1021.4 |
| 20260509014122 | 64 | 248 | 0.0 | 1.0 | 0.00 | 0.00 | 0.00 | 22 | 1021.4 |
| 20260509013619 | 64 | 248 | 0.0 | 1.0 | 0.00 | 0.00 | 0.00 | 22 | 1021.4 |